Baton Rouge, LA

10:35 PM CDT on June 22, 2017 (GMT -0500)
Baton Rouge Metro-Ryan

Weather History for KBTR - November, 2012

Change the Weather History Date:

Tuesday, November 13, 2012

  Actual Average Record
Temperature  
Mean Temperature 49 °F 61 °F  
Max Temperature 60 °F 73 °F 85 °F (1945)
Min Temperature 37 °F 50 °F 26 °F (1907)
Degree Days  
Heating Degree Days 16 6  
Month to date heating degree days 62 58  
Since 1 July heating degree days 129 104  
Cooling Degree Days 0 2  
Month to date cooling degree days 16 30  
Year to date cooling degree days 2944 2780  
Moisture  
Dew Point 32 °F    
Average Humidity 58    
Maximum Humidity 85    
Minimum Humidity 30    
Precipitation  
Precipitation 0.00 in 0.13 in 7.20 in (1929)
Month to date precipitation 0.76 1.81  
Year to date precipitation 55.26 52.76  
Snow  
Snow 0.00 in - - ()
Month to date snowfall 0.0  
Since 1 July snowfall 0.0  
Since 1 September snowfall 0.0  
Snow Depth 0.00 in    
Sea Level Pressure  
Sea Level Pressure 30.37 in    
Wind  
Wind Speed 4 mph (NNE)    
Max Wind Speed 16 mph    
Max Gust Speed 22 mph    
Visibility 10 miles    
Events      
T = Trace of Precipitation, MM = Missing Value Source: NWS Daily Summary

Daily Weather History Graph

Daily Weather History Graph

Search for Another Location

Airport or City:

Trip Planner

Search our weather history database for the weather conditions in past years. The results will help you decide how hot, cold, wet, or windy it might be!

Date:

Astronomy

Nov. 13, 2012 Rise Set
Actual Time 6:29 AM CST 5:08 PM CST
Civil Twilight 6:03 AM CST 5:33 PM CST
Nautical Twilight 5:34 AM CST 6:02 PM CST
Astronomical Twilight 5:06 AM CST 6:31 PM CST
Moon 6:06 AM CST (11/13) 5:03 PM CST (11/13)
Length of Visible Light 11h 29m
Length of Day
10h 38m
Waning Crescent, 0% of the Moon is Illuminated
Nov 13
Waning Crescent
Nov 13
New
Nov 20
First Quarter
Nov 28
Full
Dec 6
Last Quarter

Hourly Weather History & Observations

Time (CST) Temp. Windchill Dew Point Humidity Pressure Visibility Wind Dir Wind Speed Gust Speed Precip Events Conditions
12:53 AM 39.9 °F - 35.1 °F 83% 30.40 in 10.0 mi Calm Calm - N/A   Clear
1:53 AM 39.9 °F - 34.0 °F 79% 30.40 in 10.0 mi Calm Calm - N/A   Clear
2:53 AM 39.0 °F 36.8 °F 34.0 °F 82% 30.41 in 10.0 mi NNE 3.5 mph - N/A   Clear
3:53 AM 37.9 °F - 33.1 °F 83% 30.42 in 10.0 mi Calm Calm - N/A   Clear
4:53 AM 37.0 °F - 32.0 °F 82% 30.43 in 10.0 mi Calm Calm - N/A   Clear
5:53 AM 37.0 °F 34.5 °F 30.9 °F 79% 30.43 in 10.0 mi NNE 3.5 mph - N/A   Clear
6:53 AM 37.9 °F 35.5 °F 30.0 °F 73% 30.44 in 10.0 mi NNE 3.5 mph - N/A   Clear
7:53 AM 43.0 °F 39.5 °F 28.9 °F 58% 30.45 in 10.0 mi NE 5.8 mph 17.3 mph N/A   Clear
8:53 AM 48.9 °F - 28.0 °F 44% 30.45 in 10.0 mi NE 13.8 mph 21.9 mph N/A   Clear
9:53 AM 51.1 °F - 27.0 °F 39% 30.45 in 10.0 mi ENE 13.8 mph 24.2 mph N/A   Clear
10:53 AM 55.0 °F - 27.0 °F 34% 30.41 in 10.0 mi NE 10.4 mph - N/A   Unknown
11:53 AM 55.9 °F - 26.1 °F 32% 30.37 in 10.0 mi NNE 6.9 mph 18.4 mph N/A   Clear
12:53 PM 57.9 °F - 27.0 °F 31% 30.32 in 10.0 mi NNE 6.9 mph - N/A   Clear
1:53 PM 57.0 °F - 28.9 °F 34% 30.32 in 10.0 mi Variable 5.8 mph - N/A   Clear
2:53 PM 57.0 °F - 30.0 °F 36% 30.30 in 10.0 mi NNE 8.1 mph - N/A   Clear
3:53 PM 57.0 °F - 30.0 °F 36% 30.30 in 10.0 mi Variable 4.6 mph - N/A   Clear
4:53 PM 54.0 °F - 33.1 °F 45% 30.30 in 10.0 mi Calm Calm - N/A   Clear
5:53 PM 48.9 °F - 37.9 °F 66% 30.32 in 10.0 mi Calm Calm - N/A   Clear
6:53 PM 50.0 °F - 36.0 °F 59% 30.33 in 10.0 mi Calm Calm - N/A   Clear
7:53 PM 50.0 °F - 34.0 °F 54% 30.34 in 10.0 mi Calm Calm - N/A   Clear
8:53 PM 48.0 °F - 34.0 °F 58% 30.34 in 10.0 mi Calm Calm - N/A   Clear
9:53 PM 46.0 °F 44.8 °F 34.0 °F 63% 30.33 in 10.0 mi North 3.5 mph - N/A   Clear
10:53 PM 46.9 °F - 34.0 °F 61% 30.33 in 10.0 mi North 3.5 mph - N/A   Clear
11:53 PM 46.0 °F - 34.0 °F 63% 30.33 in 10.0 mi Calm Calm - N/A   Clear